Year,Month,Day,Hour,Minute,Value (Times are PST for barometer in hPa)
2015,12,08,00,00,1007.35
2015,12,08,00,01,1007.31
2015,12,08,00,02,1007.21
2015,12,08,00,03,1007.21
2015,12,08,00,04,1007.25
2015,12,08,00,05,1007.32
2015,12,08,00,06,1007.28
2015,12,08,00,07,1007.25
2015,12,08,00,08,1007.17
2015,12,08,00,09,1007.04
2015,12,08,00,10,1006.98
2015,12,08,00,11,1006.94
2015,12,08,00,12,1006.91
2015,12,08,00,13,1006.91
2015,12,08,00,14,1006.98
2015,12,08,00,15,1007.04
2015,12,08,00,16,1007.08
2015,12,08,00,17,1007.11
2015,12,08,00,18,1007.07
2015,12,08,00,19,1006.94
2015,12,08,00,20,1006.94
2015,12,08,00,21,1006.88
2015,12,08,00,22,1006.84
2015,12,08,00,23,1006.81
2015,12,08,00,24,1006.73
2015,12,08,00,25,1006.67
2015,12,08,00,26,1006.60
2015,12,08,00,27,1006.57
2015,12,08,00,28,1006.50
2015,12,08,00,29,1006.50
2015,12,08,00,30,1006.46
2015,12,08,00,31,1006.37
2015,12,08,00,32,1006.30
2015,12,08,00,33,1006.33
2015,12,08,00,34,1006.26
2015,12,08,00,35,1006.16
2015,12,08,00,36,1006.10
2015,12,08,00,37,1006.10
2015,12,08,00,38,1006.10
2015,12,08,00,39,1006.10
2015,12,08,00,40,1006.06
2015,12,08,00,41,1006.06
2015,12,08,00,42,1006.10
2015,12,08,00,43,1006.16
2015,12,08,00,44,1006.16
2015,12,08,00,45,1006.16
2015,12,08,00,46,1006.10
2015,12,08,00,47,1006.06
2015,12,08,00,48,1006.02
2015,12,08,00,49,1005.85
2015,12,08,00,50,1005.76
2015,12,08,00,51,1005.79
2015,12,08,00,52,1005.72
2015,12,08,00,53,1005.65
2015,12,08,00,54,1005.55
2015,12,08,00,55,1005.59
2015,12,08,00,56,1005.52
2015,12,08,00,57,1005.52
2015,12,08,00,58,1005.42
2015,12,08,00,59,1005.39
2015,12,08,01,00,1005.39
2015,12,08,01,01,1005.39
2015,12,08,01,02,1005.39
2015,12,08,01,03,1005.25
2015,12,08,01,04,1005.25
2015,12,08,01,05,1005.25
2015,12,08,01,06,1005.18
2015,12,08,01,07,1005.15
2015,12,08,01,08,1005.00
2015,12,08,01,09,1004.91
2015,12,08,01,10,1004.91
2015,12,08,01,11,1004.95
2015,12,08,01,12,1005.01
2015,12,08,01,13,1004.95
2015,12,08,01,14,1004.91
2015,12,08,01,15,1004.84
2015,12,08,01,16,1004.84
2015,12,08,01,17,1004.84
2015,12,08,01,18,1004.81
2015,12,08,01,19,1004.81
2015,12,08,01,20,1004.71
2015,12,08,01,21,1004.78
2015,12,08,01,22,1004.71
2015,12,08,01,23,1004.74
2015,12,08,01,24,1004.74
2015,12,08,01,25,1004.71
2015,12,08,01,26,1004.74
2015,12,08,01,27,1004.60
2015,12,08,01,28,1004.47
2015,12,08,01,29,1004.44
2015,12,08,01,30,1004.50
2015,12,08,01,31,1004.56
2015,12,08,01,32,1004.39
2015,12,08,01,33,1004.20
2015,12,08,01,34,1004.13
2015,12,08,01,35,1004.11
2015,12,08,01,36,1004.20
2015,12,08,01,37,1004.13
2015,12,08,01,38,1004.17
2015,12,08,01,39,1004.17
2015,12,08,01,40,1004.13
2015,12,08,01,41,1004.00
2015,12,08,01,42,1003.93
2015,12,08,01,43,1003.93
2015,12,08,01,44,1003.93
2015,12,08,01,45,1003.93
2015,12,08,01,46,1004.03
2015,12,08,01,47,1004.06
2015,12,08,01,48,1003.96
2015,12,08,01,49,1003.96
2015,12,08,01,50,1003.92
2015,12,08,01,51,1003.75
2015,12,08,01,52,1003.67
2015,12,08,01,53,1003.86
2015,12,08,01,54,1003.82
2015,12,08,01,55,1003.66
2015,12,08,01,56,1003.59
2015,12,08,01,57,1003.56
2015,12,08,01,58,1003.49
2015,12,08,01,59,1003.52
2015,12,08,02,00,1003.52
2015,12,08,02,01,1003.46
2015,12,08,02,02,1003.45
2015,12,08,02,03,1003.35
2015,12,08,02,04,1003.49
2015,12,08,02,05,1003.48
2015,12,08,02,06,1003.34
2015,12,08,02,07,1003.18
2015,12,08,02,08,1003.25
2015,12,08,02,09,1003.21
2015,12,08,02,10,1003.12
2015,12,08,02,11,1003.00
2015,12,08,02,12,1002.91
2015,12,08,02,13,1002.88
2015,12,08,02,14,1002.78
2015,12,08,02,15,1002.71
2015,12,08,02,16,1002.91
2015,12,08,02,17,1002.74
2015,12,08,02,18,1002.52
2015,12,08,02,19,1002.61
2015,12,08,02,20,1002.38
2015,12,08,02,21,1002.44
2015,12,08,02,22,1002.37
2015,12,08,02,23,1002.37
2015,12,08,02,24,1002.30
2015,12,08,02,25,1002.27
2015,12,08,02,26,1002.44
2015,12,08,02,27,1002.47
2015,12,08,02,28,1002.47
2015,12,08,02,29,1002.54
2015,12,08,02,30,1002.47
2015,12,08,02,31,1002.44
2015,12,08,02,32,1002.37
2015,12,08,02,33,1002.44
2015,12,08,02,34,1002.44
2015,12,08,02,35,1002.25
2015,12,08,02,36,1002.17
2015,12,08,02,37,1002.17
2015,12,08,02,38,1002.13
2015,12,08,02,39,1002.13
2015,12,08,02,40,1002.17
2015,12,08,02,41,1002.10
2015,12,08,02,42,1002.07
2015,12,08,02,43,1002.10
2015,12,08,02,44,1001.93
2015,12,08,02,45,1001.97
2015,12,08,02,46,1001.93
2015,12,08,02,47,1001.90
2015,12,08,02,48,1001.90
2015,12,08,02,49,1002.00
2015,12,08,02,50,1002.00
2015,12,08,02,51,1002.00
2015,12,08,02,52,1002.07
2015,12,08,02,53,1002.03
2015,12,08,02,54,1002.10
2015,12,08,02,55,1002.24
2015,12,08,02,56,1002.10
2015,12,08,02,57,1002.10
2015,12,08,02,58,1002.17
2015,12,08,02,59,1002.13
2015,12,08,03,00,1002.10
2015,12,08,03,01,1002.00
2015,12,08,03,02,1001.90
2015,12,08,03,03,1001.86
2015,12,08,03,04,1001.86
2015,12,08,03,05,1001.80
2015,12,08,03,06,1001.73
2015,12,08,03,07,1001.69
2015,12,08,03,08,1001.66
2015,12,08,03,09,1001.52
2015,12,08,03,10,1001.59
2015,12,08,03,11,1001.59
2015,12,08,03,12,1001.49
2015,12,08,03,13,1001.46
2015,12,08,03,14,1001.63
2015,12,08,03,15,1001.49
2015,12,08,03,16,1001.59
2015,12,08,03,17,1001.46
2015,12,08,03,18,1001.39
2015,12,08,03,19,1001.25
2015,12,08,03,20,1001.32
2015,12,08,03,21,1001.36
2015,12,08,03,22,1001.42
2015,12,08,03,23,1001.39
2015,12,08,03,24,1001.39
2015,12,08,03,25,1001.19
2015,12,08,03,26,1001.32
2015,12,08,03,27,1001.25
2015,12,08,03,28,1001.59
2015,12,08,03,29,1001.52
2015,12,08,03,30,1001.49
2015,12,08,03,31,1001.46
2015,12,08,03,32,1001.39
2015,12,08,03,33,1001.39
2015,12,08,03,34,1001.19
2015,12,08,03,35,1001.15
2015,12,08,03,36,1001.25
2015,12,08,03,37,1001.15
2015,12,08,03,38,1001.12
2015,12,08,03,39,1001.12
2015,12,08,03,40,1001.05
2015,12,08,03,41,1001.05
2015,12,08,03,42,1000.92
2015,12,08,03,43,1000.85
2015,12,08,03,44,1000.81
2015,12,08,03,45,1000.88
2015,12,08,03,46,1000.75
2015,12,08,03,47,1000.71
2015,12,08,03,48,1000.48
2015,12,08,03,49,1000.44
2015,12,08,03,50,1000.37
2015,12,08,03,51,1000.48
2015,12,08,03,52,1000.44
2015,12,08,03,53,1000.37
2015,12,08,03,54,1000.31
2015,12,08,03,55,1000.17
2015,12,08,03,56,1000.24
2015,12,08,03,57,1000.17
2015,12,08,03,58,1000.07
2015,12,08,03,59,1000.03
2015,12,08,04,00,1000.10
2015,12,08,04,01,1000.14
2015,12,08,04,02,999.97
2015,12,08,04,03,999.87
2015,12,08,04,04,999.93
2015,12,08,04,05,999.97
2015,12,08,04,06,999.81
2015,12,08,04,07,999.73
2015,12,08,04,08,999.76
2015,12,08,04,09,999.70
2015,12,08,04,10,999.63
2015,12,08,04,11,999.70
2015,12,08,04,12,999.59
2015,12,08,04,13,999.66
2015,12,08,04,14,999.63
2015,12,08,04,15,999.59
2015,12,08,04,16,999.66
2015,12,08,04,17,999.63
2015,12,08,04,18,999.66
2015,12,08,04,19,999.63
2015,12,08,04,20,999.49
2015,12,08,04,21,999.53
2015,12,08,04,22,999.46
2015,12,08,04,23,999.56
2015,12,08,04,24,999.59
2015,12,08,04,25,999.49
2015,12,08,04,26,999.29
2015,12,08,04,27,999.32
2015,12,08,04,28,999.36
2015,12,08,04,29,999.36
2015,12,08,04,30,999.29
2015,12,08,04,31,999.36
2015,12,08,04,32,999.22
2015,12,08,04,33,999.12
2015,12,08,04,34,999.19
2015,12,08,04,35,999.09
2015,12,08,04,36,999.05
2015,12,08,04,37,998.88
2015,12,08,04,38,998.82
2015,12,08,04,39,998.88
2015,12,08,04,40,998.75
2015,12,08,04,41,998.75
2015,12,08,04,42,998.54
2015,12,08,04,43,998.58
2015,12,08,04,44,998.61
2015,12,08,04,45,998.61
2015,12,08,04,46,998.61
2015,12,08,04,47,998.38
2015,12,08,04,48,998.27
2015,12,08,04,49,998.17
2015,12,08,04,50,998.14
2015,12,08,04,51,998.21
2015,12,08,04,52,998.00
2015,12,08,04,53,998.20
2015,12,08,04,54,998.17
2015,12,08,04,55,998.00
2015,12,08,04,56,998.16
2015,12,08,04,57,998.10
2015,12,08,04,58,998.07
2015,12,08,04,59,998.00
2015,12,08,05,00,997.63
2015,12,08,05,01,997.70
2015,12,08,05,02,997.66
2015,12,08,05,03,997.79
2015,12,08,05,04,997.73
2015,12,08,05,05,997.66
2015,12,08,05,06,997.60
2015,12,08,05,07,997.53
2015,12,08,05,08,997.63
2015,12,08,05,09,997.53
2015,12,08,05,10,997.60
2015,12,08,05,11,997.56
2015,12,08,05,12,997.70
2015,12,08,05,13,997.70
2015,12,08,05,14,997.66
2015,12,08,05,15,997.63
2015,12,08,05,16,997.46
2015,12,08,05,17,997.43
2015,12,08,05,18,997.50
2015,12,08,05,19,997.46
2015,12,08,05,20,997.46
2015,12,08,05,21,997.36
2015,12,08,05,22,997.36
2015,12,08,05,23,997.26
2015,12,08,05,24,997.26
2015,12,08,05,25,997.05
2015,12,08,05,26,996.89
2015,12,08,05,27,996.89
2015,12,08,05,28,996.92
2015,12,08,05,29,996.65
2015,12,08,05,30,996.72
2015,12,08,05,31,996.91
2015,12,08,05,32,996.95
2015,12,08,05,33,996.95
2015,12,08,05,34,996.82
2015,12,08,05,35,996.75
2015,12,08,05,36,996.65
2015,12,08,05,37,996.75
2015,12,08,05,38,996.56
2015,12,08,05,39,996.48
2015,12,08,05,40,996.41
2015,12,08,05,41,996.28
2015,12,08,05,42,996.34
2015,12,08,05,43,996.31
2015,12,08,05,44,996.24
2015,12,08,05,45,995.90
2015,12,08,05,46,995.84
2015,12,08,05,47,995.84
2015,12,08,05,48,995.71
2015,12,08,05,49,995.60
2015,12,08,05,50,995.56
2015,12,08,05,51,995.46
2015,12,08,05,52,995.40
2015,12,08,05,53,995.53
2015,12,08,05,54,995.36
2015,12,08,05,55,995.46
2015,12,08,05,56,995.46
2015,12,08,05,57,995.50
2015,12,08,05,58,995.43
2015,12,08,05,59,995.43
2015,12,08,06,00,995.40
2015,12,08,06,01,995.56
2015,12,08,06,02,995.56
2015,12,08,06,03,995.33
2015,12,08,06,04,995.26
2015,12,08,06,05,995.29
2015,12,08,06,06,995.09
2015,12,08,06,07,995.06
2015,12,08,06,08,995.06
2015,12,08,06,09,994.92
2015,12,08,06,10,994.92
2015,12,08,06,11,995.02
2015,12,08,06,12,994.89
2015,12,08,06,13,994.75
2015,12,08,06,14,994.65
2015,12,08,06,15,994.75
2015,12,08,06,16,994.79
2015,12,08,06,17,994.72
2015,12,08,06,18,994.58
2015,12,08,06,19,994.52
2015,12,08,06,20,994.71
2015,12,08,06,21,994.45
2015,12,08,06,22,994.31
2015,12,08,06,23,994.21
2015,12,08,06,24,994.01
2015,12,08,06,25,994.07
2015,12,08,06,26,994.07
2015,12,08,06,27,994.01
2015,12,08,06,28,993.87
2015,12,08,06,29,993.97
2015,12,08,06,30,993.94
2015,12,08,06,31,994.01
2015,12,08,06,32,993.81
2015,12,08,06,33,993.77
2015,12,08,06,34,993.94
2015,12,08,06,35,994.07
2015,12,08,06,36,993.84
2015,12,08,06,37,993.97
2015,12,08,06,38,994.04
2015,12,08,06,39,993.97
2015,12,08,06,40,993.97
2015,12,08,06,41,993.94
2015,12,08,06,42,993.97
2015,12,08,06,43,993.94
2015,12,08,06,44,993.91
2015,12,08,06,45,993.77
2015,12,08,06,46,993.77
2015,12,08,06,47,993.91
2015,12,08,06,48,993.67
2015,12,08,06,49,993.84
2015,12,08,06,50,993.97
2015,12,08,06,51,993.91
2015,12,08,06,52,993.74
2015,12,08,06,53,993.74
2015,12,08,06,54,993.84
2015,12,08,06,55,993.87
2015,12,08,06,56,994.04
2015,12,08,06,57,994.01
2015,12,08,06,58,993.91
2015,12,08,06,59,993.91
2015,12,08,07,00,993.91
2015,12,08,07,01,993.84
2015,12,08,07,02,993.60
2015,12,08,07,03,993.60
2015,12,08,07,04,993.63
2015,12,08,07,05,993.57
2015,12,08,07,06,993.63
2015,12,08,07,07,993.53
2015,12,08,07,08,993.36
2015,12,08,07,09,993.50
2015,12,08,07,10,993.53
2015,12,08,07,11,993.57
2015,12,08,07,12,993.43
2015,12,08,07,13,993.36
2015,12,08,07,14,993.52
2015,12,08,07,15,993.43
2015,12,08,07,16,993.50
2015,12,08,07,17,993.57
2015,12,08,07,18,993.33
2015,12,08,07,19,993.43
2015,12,08,07,20,993.40
2015,12,08,07,21,993.30
2015,12,08,07,22,993.40
2015,12,08,07,23,993.43
2015,12,08,07,24,993.23
2015,12,08,07,25,993.33
2015,12,08,07,26,993.10
2015,12,08,07,27,993.13
2015,12,08,07,28,993.13
2015,12,08,07,29,993.13
2015,12,08,07,30,993.16
2015,12,08,07,31,993.16
2015,12,08,07,32,993.06
2015,12,08,07,33,993.03
2015,12,08,07,34,992.86
2015,12,08,07,35,992.92
2015,12,08,07,36,992.96
2015,12,08,07,37,992.79
2015,12,08,07,38,992.92
2015,12,08,07,39,992.96
2015,12,08,07,40,992.69
2015,12,08,07,41,992.65
2015,12,08,07,42,992.79
2015,12,08,07,43,992.58
2015,12,08,07,44,992.89
2015,12,08,07,45,992.99
2015,12,08,07,46,992.96
2015,12,08,07,47,992.99
2015,12,08,07,48,993.13
2015,12,08,07,49,993.16
2015,12,08,07,50,993.03
2015,12,08,07,51,993.06
2015,12,08,07,52,993.30
2015,12,08,07,53,993.36
2015,12,08,07,54,993.36
2015,12,08,07,55,993.49
2015,12,08,07,56,993.50
2015,12,08,07,57,993.50
2015,12,08,07,58,993.34
2015,12,08,07,59,993.33
2015,12,08,08,00,993.26
2015,12,08,08,01,993.42
2015,12,08,08,02,993.30
2015,12,08,08,03,993.40
2015,12,08,08,04,993.33
2015,12,08,08,05,993.13
2015,12,08,08,06,993.16
2015,12,08,08,07,993.23
2015,12,08,08,08,993.30
2015,12,08,08,09,993.26
2015,12,08,08,10,993.13
2015,12,08,08,11,993.13
2015,12,08,08,12,993.23
2015,12,08,08,13,993.26
2015,12,08,08,14,993.33
2015,12,08,08,15,993.23
2015,12,08,08,16,993.16
2015,12,08,08,17,993.26
2015,12,08,08,18,993.16
2015,12,08,08,19,993.33
2015,12,08,08,20,993.60
2015,12,08,08,21,993.60
2015,12,08,08,22,993.60
2015,12,08,08,23,993.74
2015,12,08,08,24,993.77
2015,12,08,08,25,993.74
2015,12,08,08,26,993.80
2015,12,08,08,27,993.67
2015,12,08,08,28,993.83
2015,12,08,08,29,994.01
2015,12,08,08,30,993.74
2015,12,08,08,31,993.87
2015,12,08,08,32,994.21
2015,12,08,08,33,994.40
2015,12,08,08,34,994.24
2015,12,08,08,35,994.14
2015,12,08,08,36,994.28
2015,12,08,08,37,994.38
2015,12,08,08,38,994.31
2015,12,08,08,39,994.48
2015,12,08,08,40,994.48
2015,12,08,08,41,994.35
2015,12,08,08,42,994.38
2015,12,08,08,43,994.12
2015,12,08,08,44,994.31
2015,12,08,08,45,994.35
2015,12,08,08,46,994.41
2015,12,08,08,47,994.55
2015,12,08,08,48,994.45
2015,12,08,08,49,994.48
2015,12,08,08,50,994.52
2015,12,08,08,51,994.62
2015,12,08,08,52,994.52
2015,12,08,08,53,994.58
2015,12,08,08,54,994.52
2015,12,08,08,55,994.41
2015,12,08,08,56,994.35
2015,12,08,08,57,994.38
2015,12,08,08,58,994.35
2015,12,08,08,59,994.48
2015,12,08,09,00,994.48
2015,12,08,09,01,994.35
2015,12,08,09,02,994.24
2015,12,08,09,03,994.35
2015,12,08,09,04,994.48
2015,12,08,09,05,994.45
2015,12,08,09,06,994.35
2015,12,08,09,07,994.31
2015,12,08,09,08,994.62
2015,12,08,09,09,994.68
2015,12,08,09,10,994.41
2015,12,08,09,11,994.35
2015,12,08,09,12,994.65
2015,12,08,09,13,994.55
2015,12,08,09,14,994.38
2015,12,08,09,15,994.45
2015,12,08,09,16,994.55
2015,12,08,09,17,994.62
2015,12,08,09,18,994.81
2015,12,08,09,19,995.02
2015,12,08,09,20,995.12
2015,12,08,09,21,995.23
2015,12,08,09,22,995.40
2015,12,08,09,23,995.24
2015,12,08,09,24,995.19
2015,12,08,09,25,995.26
2015,12,08,09,26,995.29
2015,12,08,09,27,995.02
2015,12,08,09,28,995.02
2015,12,08,09,29,994.96
2015,12,08,09,30,994.99
2015,12,08,09,31,994.89
2015,12,08,09,32,994.72
2015,12,08,09,33,994.79
2015,12,08,09,34,994.96
2015,12,08,09,35,995.06
2015,12,08,09,36,994.99
2015,12,08,09,37,995.12
2015,12,08,09,38,995.26
2015,12,08,09,39,995.43
2015,12,08,09,40,995.59
2015,12,08,09,41,995.77
2015,12,08,09,42,995.77
2015,12,08,09,43,995.63
2015,12,08,09,44,995.80
2015,12,08,09,45,995.77
2015,12,08,09,46,995.60
2015,12,08,09,47,995.79
2015,12,08,09,48,995.90
2015,12,08,09,49,995.77
2015,12,08,09,50,995.50
2015,12,08,09,51,995.73
2015,12,08,09,52,995.57
2015,12,08,09,53,995.87
2015,12,08,09,54,995.87
2015,12,08,09,55,995.87
2015,12,08,09,56,995.94
2015,12,08,09,57,995.97
2015,12,08,09,58,995.94
2015,12,08,09,59,995.90
2015,12,08,10,00,996.01
2015,12,08,10,01,996.11
2015,12,08,10,02,996.28
2015,12,08,10,03,996.47
2015,12,08,10,04,996.38
2015,12,08,10,05,996.34
2015,12,08,10,06,996.31
2015,12,08,10,07,996.47
2015,12,08,10,08,996.55
2015,12,08,10,09,996.55
2015,12,08,10,10,996.51
2015,12,08,10,11,996.55
2015,12,08,10,12,996.58
2015,12,08,10,13,996.89
2015,12,08,10,14,996.73
2015,12,08,10,15,996.68
2015,12,08,10,16,996.84
2015,12,08,10,17,996.75
2015,12,08,10,18,996.68
2015,12,08,10,19,996.68
2015,12,08,10,20,996.58
2015,12,08,10,21,996.74
2015,12,08,10,22,996.82
2015,12,08,10,23,996.72
2015,12,08,10,24,996.65
2015,12,08,10,25,996.52
2015,12,08,10,26,996.61
2015,12,08,10,27,996.55
2015,12,08,10,28,996.41
2015,12,08,10,29,996.45
2015,12,08,10,30,996.60
2015,12,08,10,31,996.78
2015,12,08,10,32,996.78
2015,12,08,10,33,996.68
2015,12,08,10,34,996.72
2015,12,08,10,35,996.72
2015,12,08,10,36,996.78
2015,12,08,10,37,996.78
2015,12,08,10,38,996.95
2015,12,08,10,39,996.85
2015,12,08,10,40,996.82
2015,12,08,10,41,996.82
2015,12,08,10,42,996.75
2015,12,08,10,43,996.58
2015,12,08,10,44,996.58
2015,12,08,10,45,996.88
2015,12,08,10,46,996.89
2015,12,08,10,47,996.85
2015,12,08,10,48,996.92
2015,12,08,10,49,997.02
2015,12,08,10,50,997.02
2015,12,08,10,51,997.12
2015,12,08,10,52,997.32
2015,12,08,10,53,997.33
2015,12,08,10,54,997.39
2015,12,08,10,55,997.26
2015,12,08,10,56,997.33
2015,12,08,10,57,997.62
2015,12,08,10,58,997.66
2015,12,08,10,59,997.56
2015,12,08,11,00,997.56
2015,12,08,11,01,997.63
2015,12,08,11,02,997.73
2015,12,08,11,03,997.70
2015,12,08,11,04,997.73
2015,12,08,11,05,997.83
2015,12,08,11,06,997.80
2015,12,08,11,07,997.83
2015,12,08,11,08,997.80
2015,12,08,11,09,997.97
2015,12,08,11,10,998.04
2015,12,08,11,11,998.14
2015,12,08,11,12,998.24
2015,12,08,11,13,998.34
2015,12,08,11,14,998.21
2015,12,08,11,15,998.27
2015,12,08,11,16,998.17
2015,12,08,11,17,998.37
2015,12,08,11,18,998.38
2015,12,08,11,19,998.48
2015,12,08,11,20,998.51
2015,12,08,11,21,998.51
2015,12,08,11,22,998.65
2015,12,08,11,23,998.48
2015,12,08,11,24,998.44
2015,12,08,11,25,998.58
2015,12,08,11,26,998.68
2015,12,08,11,27,998.78
2015,12,08,11,28,998.92
2015,12,08,11,29,999.05
2015,12,08,11,30,998.92
2015,12,08,11,31,998.92
2015,12,08,11,32,999.11
2015,12,08,11,33,999.15
2015,12,08,11,34,999.02
2015,12,08,11,35,998.95
2015,12,08,11,36,998.95
2015,12,08,11,37,999.09
2015,12,08,11,38,999.02
2015,12,08,11,39,999.09
2015,12,08,11,40,999.19
2015,12,08,11,41,999.22
2015,12,08,11,42,999.36
2015,12,08,11,43,999.43
2015,12,08,11,44,999.43
2015,12,08,11,45,999.36
2015,12,08,11,46,999.29
2015,12,08,11,47,999.39
2015,12,08,11,48,999.43
2015,12,08,11,49,999.53
2015,12,08,11,50,999.66
2015,12,08,11,51,999.76
2015,12,08,11,52,999.80
2015,12,08,11,53,999.70
2015,12,08,11,54,999.76
2015,12,08,11,55,999.83
2015,12,08,11,56,999.87
2015,12,08,11,57,999.83
2015,12,08,11,58,999.73
2015,12,08,11,59,999.66
2015,12,08,12,00,999.70
2015,12,08,12,01,999.73
2015,12,08,12,02,999.87
2015,12,08,12,03,999.93
2015,12,08,12,04,999.90
2015,12,08,12,05,1000.10
2015,12,08,12,06,1000.03
2015,12,08,12,07,1000.00
2015,12,08,12,08,1000.00
2015,12,08,12,09,1000.03
2015,12,08,12,10,1000.03
2015,12,08,12,11,1000.07
2015,12,08,12,12,1000.20
2015,12,08,12,13,1000.14
2015,12,08,12,14,1000.07
2015,12,08,12,15,1000.10
2015,12,08,12,16,1000.10
2015,12,08,12,17,1000.20
2015,12,08,12,18,1000.24
2015,12,08,12,19,1000.17
2015,12,08,12,20,1000.20
2015,12,08,12,21,1000.20
2015,12,08,12,22,1000.24
2015,12,08,12,23,1000.41
2015,12,08,12,24,1000.48
2015,12,08,12,25,1000.37
2015,12,08,12,26,1000.41
2015,12,08,12,27,1000.37
2015,12,08,12,28,1000.41
2015,12,08,12,29,1000.51
2015,12,08,12,30,1000.58
2015,12,08,12,31,1000.61
2015,12,08,12,32,1000.54
2015,12,08,12,33,1000.54
2015,12,08,12,34,1000.61
2015,12,08,12,35,1000.54
2015,12,08,12,36,1000.54
2015,12,08,12,37,1000.48
2015,12,08,12,38,1000.51
2015,12,08,12,39,1000.54
2015,12,08,12,40,1000.64
2015,12,08,12,41,1000.48
2015,12,08,12,42,1000.54
2015,12,08,12,43,1000.51
2015,12,08,12,44,1000.44
2015,12,08,12,45,1000.41
2015,12,08,12,46,1000.51
2015,12,08,12,47,1000.67
2015,12,08,12,48,1000.61
2015,12,08,12,49,1000.61
2015,12,08,12,50,1000.58
2015,12,08,12,51,1000.61
2015,12,08,12,52,1000.61
2015,12,08,12,53,1000.58
2015,12,08,12,54,1000.51
2015,12,08,12,55,1000.51
2015,12,08,12,56,1000.54
2015,12,08,12,57,1000.58
2015,12,08,12,58,1000.64
2015,12,08,12,59,1000.71
2015,12,08,13,00,1000.54
2015,12,08,13,01,1000.58
2015,12,08,13,02,1000.64
2015,12,08,13,03,1000.78
2015,12,08,13,04,1000.78
2015,12,08,13,05,1000.75
2015,12,08,13,06,1000.75
2015,12,08,13,07,1000.71
2015,12,08,13,08,1000.78
2015,12,08,13,09,1000.54
2015,12,08,13,10,1000.70
2015,12,08,13,11,1000.64
2015,12,08,13,12,1000.64
2015,12,08,13,13,1000.71
2015,12,08,13,14,1000.68
2015,12,08,13,15,1000.78
2015,12,08,13,16,1000.78
2015,12,08,13,17,1000.88
2015,12,08,13,18,1000.88
2015,12,08,13,19,1000.95
2015,12,08,13,20,1000.95
2015,12,08,13,21,1000.98
2015,12,08,13,22,1000.95
2015,12,08,13,23,1000.92
2015,12,08,13,24,1000.85
2015,12,08,13,25,1000.92
2015,12,08,13,26,1000.92
2015,12,08,13,27,1001.07
2015,12,08,13,28,1001.05
2015,12,08,13,29,1001.08
2015,12,08,13,30,1001.19
2015,12,08,13,31,1001.32
2015,12,08,13,32,1001.42
2015,12,08,13,33,1001.46
2015,12,08,13,34,1001.39
2015,12,08,13,35,1001.36
2015,12,08,13,36,1001.58
2015,12,08,13,37,1001.52
2015,12,08,13,38,1001.42
2015,12,08,13,39,1001.36
2015,12,08,13,40,1001.55
2015,12,08,13,41,1001.46
2015,12,08,13,42,1001.19
2015,12,08,13,43,1001.12
2015,12,08,13,44,1001.12
2015,12,08,13,45,1001.19
2015,12,08,13,46,1001.35
2015,12,08,13,47,1001.39
2015,12,08,13,48,1001.49
2015,12,08,13,49,1001.42
2015,12,08,13,50,1001.42
2015,12,08,13,51,1001.26
2015,12,08,13,52,1001.15
2015,12,08,13,53,1001.12
2015,12,08,13,54,1001.19
2015,12,08,13,55,1001.32
2015,12,08,13,56,1001.39
2015,12,08,13,57,1001.39
2015,12,08,13,58,1001.29
2015,12,08,13,59,1001.19
2015,12,08,14,00,1001.12
2015,12,08,14,01,1001.02
2015,12,08,14,02,1000.95
2015,12,08,14,03,1000.98
2015,12,08,14,04,1001.14
2015,12,08,14,05,1001.19
2015,12,08,14,06,1001.29
2015,12,08,14,07,1001.32
2015,12,08,14,08,1001.32
2015,12,08,14,09,1001.22
2015,12,08,14,10,1001.22
2015,12,08,14,11,1001.15
2015,12,08,14,12,1001.15
2015,12,08,14,13,1001.19
2015,12,08,14,14,1001.22
2015,12,08,14,15,1001.19
2015,12,08,14,16,1001.15
2015,12,08,14,17,1001.25
2015,12,08,14,18,1001.29
2015,12,08,14,19,1001.25
2015,12,08,14,20,1001.19
2015,12,08,14,21,1001.22
2015,12,08,14,22,1001.35
2015,12,08,14,23,1001.36
2015,12,08,14,24,1001.36
2015,12,08,14,25,1001.36
2015,12,08,14,26,1001.42
2015,12,08,14,27,1001.42
2015,12,08,14,28,1001.26
2015,12,08,14,29,1001.29
2015,12,08,14,30,1001.36
2015,12,08,14,31,1001.39
2015,12,08,14,32,1001.36
2015,12,08,14,33,1001.22
2015,12,08,14,34,1001.19
2015,12,08,14,35,1001.19
2015,12,08,14,36,1001.19
2015,12,08,14,37,1001.19
2015,12,08,14,38,1001.15
2015,12,08,14,39,1001.12
2015,12,08,14,40,1001.22
2015,12,08,14,41,1001.29
2015,12,08,14,42,1001.29
2015,12,08,14,43,1001.22
2015,12,08,14,44,1001.22
2015,12,08,14,45,1001.25
2015,12,08,14,46,1001.22
2015,12,08,14,47,1001.19
2015,12,08,14,48,1001.12
2015,12,08,14,49,1001.05
2015,12,08,14,50,1000.95
2015,12,08,14,51,1001.08
2015,12,08,14,52,1001.08
2015,12,08,14,53,1001.22
2015,12,08,14,54,1001.41
2015,12,08,14,55,1001.02
2015,12,08,14,56,1001.08
2015,12,08,14,57,1001.12
2015,12,08,14,58,1000.92
2015,12,08,14,59,1000.85
2015,12,08,15,00,1000.88
2015,12,08,15,01,1000.88
2015,12,08,15,02,1001.04
2015,12,08,15,03,1001.15
2015,12,08,15,04,1001.22
2015,12,08,15,05,1001.25
2015,12,08,15,06,1001.29
2015,12,08,15,07,1001.25
2015,12,08,15,08,1001.19
2015,12,08,15,09,1001.12
2015,12,08,15,10,1001.08
2015,12,08,15,11,1001.08
2015,12,08,15,12,1001.12
2015,12,08,15,13,1001.15
2015,12,08,15,14,1001.15
2015,12,08,15,15,1001.25
2015,12,08,15,16,1001.29
2015,12,08,15,17,1001.25
2015,12,08,15,18,1001.36
2015,12,08,15,19,1001.36
2015,12,08,15,20,1001.36
2015,12,08,15,21,1001.32
2015,12,08,15,22,1001.29
2015,12,08,15,23,1001.29
2015,12,08,15,24,1001.29
2015,12,08,15,25,1001.32
2015,12,08,15,26,1001.46
2015,12,08,15,27,1001.46
2015,12,08,15,28,1001.49
2015,12,08,15,29,1001.56
2015,12,08,15,30,1001.56
2015,12,08,15,31,1001.49
2015,12,08,15,32,1001.49
2015,12,08,15,33,1001.49
2015,12,08,15,34,1001.46
2015,12,08,15,35,1001.42
2015,12,08,15,36,1001.36
2015,12,08,15,37,1001.39
2015,12,08,15,38,1001.42
2015,12,08,15,39,1001.32
2015,12,08,15,40,1001.29
2015,12,08,15,41,1001.22
2015,12,08,15,42,1001.19
2015,12,08,15,43,1001.15
2015,12,08,15,44,1001.19
2015,12,08,15,45,1001.19
2015,12,08,15,46,1001.19
2015,12,08,15,47,1001.15
2015,12,08,15,48,1001.12
2015,12,08,15,49,1001.15
2015,12,08,15,50,1001.12
2015,12,08,15,51,1001.12
2015,12,08,15,52,1001.19
2015,12,08,15,53,1001.22
2015,12,08,15,54,1001.19
2015,12,08,15,55,1001.19
2015,12,08,15,56,1001.19
2015,12,08,15,57,1001.22
2015,12,08,15,58,1001.25
2015,12,08,15,59,1001.19
2015,12,08,16,00,1001.15
2015,12,08,16,01,1001.22
2015,12,08,16,02,1001.25
2015,12,08,16,03,1001.22
2015,12,08,16,04,1001.15
2015,12,08,16,05,1001.12
2015,12,08,16,06,1001.12
2015,12,08,16,07,1001.15
2015,12,08,16,08,1001.25
2015,12,08,16,09,1001.29
2015,12,08,16,10,1001.39
2015,12,08,16,11,1001.39
2015,12,08,16,12,1001.42
2015,12,08,16,13,1001.49
2015,12,08,16,14,1001.46
2015,12,08,16,15,1001.49